Location: De Geer
(52.1637°N, 4.9129°E)
Time: 01:50:30
(UTC+00:00)

Daily predictions for brighter satellites

Satellite Brightness Start Highest point End
(mag) Time Altitude Azimuth Time Altitude Azimuth Time Altitude Azimuth
CZ-4C R/B 4.2 02:44:57 26° NNE 02:44:57 26° NNE 02:48:17 10° NE
Cosmos 2333 Rocket 4.4 02:50:59 19° NNE 02:51:09 20° NNE 02:55:16 10° ENE
Cosmos 2082 Rocket 3.8 03:17:02 27° NNE 03:17:02 27° NNE 03:19:34 10° NNE
SJ 16-02 4.2 03:19:24 13° NE 03:19:24 13° NE 03:19:52 10° NNE
IDEFIX/ARIANE 42P 4.3 03:22:48 10° NNE 03:24:53 24° NNE 03:24:53 24° NNE
ATLAS CENTAUR R/B 3.5 03:32:01 29° ESE 03:32:01 29° ESE 03:35:35 10° ENE
ATLAS 2AS CENTAUR R/B 3.0 03:33:17 61° SSE 03:33:17 61° SSE 03:39:02 10° SE
Cosmos 2360 Rocket 2.8 03:35:55 54° ENE 03:35:55 54° ENE 03:41:13 10° SE
Cosmos 2237 Rocket 4.3 03:38:59 15° N 03:41:10 18° NNE 03:45:02 10° ENE
COSMOS 2428 4.3 03:41:43 24° N 03:43:48 30° NE 03:48:48 10° ESE
SL-16 R/B 3.8 03:47:31 24° SSE 03:47:31 24° SSE 03:49:37 10° SSE
Lacrosse 5 2.9 03:45:45 40° NE 03:45:45 40° NE 03:49:10 10° ENE
Cosmos 839 Rocket 4.1 03:49:51 66° N 03:49:51 66° N 03:55:19 10° NE
Cosmos 2322 Rocket 3.3 03:52:05 32° SSE 03:52:05 32° SSE 03:55:04 10° SSE
Cosmos 2173 Rocket 4.4 03:50:04 10° S 03:56:09 60° E 04:02:12 10° NNE
USA 234 3.2 03:50:34 10° ENE 03:57:03 65° NNW 03:57:32 63° NW
Cosmos 1153 Rocket 4.3 03:59:37 80° NNW 03:59:37 80° NNW 04:05:32 10° N
Cosmos 1898 Rocket 4.3 04:05:57 41° N 04:05:57 41° N 04:09:30 10° NNE
Cosmos 1937 Rocket 3.9 04:06:41 53° NNE 04:06:41 53° NNE 04:10:37 10° NNE
CZ-2C R/B 2.7 04:00:48 10° NNE 04:05:37 61° ESE 04:06:29 51° SSE
ADEOS 4.2 04:10:04 10° N 04:13:36 42° N 04:13:36 42° N
Cosmos 2151 4.4 04:17:27 29° NNE 04:17:27 29° NNE 04:19:38 10° NNE
CZ-4B R/B 4.3 04:12:23 10° NNE 04:14:24 29° NE 04:14:24 29° NE
Cosmos 2061 Rocket 4.4 04:10:01 10° S 04:16:07 62° E 04:22:14 10° NNE
Cosmos 1515 Rocket 4.1 04:16:48 46° NNE 04:17:44 57° ENE 04:22:01 10° SSE
H-2A R/B 3.3 04:14:29 10° NNE 04:17:44 47° NNE 04:17:44 47° NNE
Okean O Rocket 4.4 04:16:10 10° NE 04:19:15 19° E 04:22:19 10° SE
Cosmos 2228 Rocket 4.3 04:15:30 11° N 04:19:41 42° ENE 04:24:03 10° SE
STARLINK-69 4.3 04:20:50 49° SE 04:20:50 49° SE 04:24:31 10° ENE
Cosmos 1606 3.8 04:21:21 38° NE 04:22:04 43° ENE 04:25:44 10° SSE
STARLINK-66 4.3 04:22:25 50° SE 04:22:25 50° SE 04:26:11 10° ENE
STARLINK-41 4.2 04:23:58 51° SE 04:23:58 51° SE 04:27:48 10° ENE
Cosmos 2219 Rocket 3.0 04:20:31 23° NNW 04:23:45 47° NE 04:29:13 10° SE
Cosmos 2322 3.8 04:22:45 36° NNW 04:25:08 72° ENE 04:30:47 10° SE
SKYMED 2 4.0 04:21:01 10° SSE 04:25:16 59° ENE 04:27:18 30° N
STARLINK-64 4.2 04:25:34 53° SE 04:25:34 53° SE 04:29:27 10° ENE
STARLINK-48 4.0 04:26:31 56° E 04:26:31 56° E 04:29:39 10° ENE
PAYLOAD A 4.0 04:21:00 10° NNE 04:26:25 78° WNW 04:28:30 39° SSW
STARLINK-70 4.1 04:27:11 54° SSE 04:27:11 54° SSE 04:31:09 10° ENE
Cosmos 1825 3.0 04:24:43 10° S 04:28:23 50° E 04:32:03 10° NNE
STARLINK-68 4.0 04:28:55 56° SSE 04:28:55 56° SSE 04:32:56 10° ENE
STARLINK-58 4.0 04:30:23 56° SSE 04:30:25 56° SSE 04:34:29 10° ENE
STARLINK-62 3.9 04:32:05 58° SSE 04:32:08 58° SSE 04:36:13 10° ENE
CZ-4C R/B 3.7 04:30:07 26° NNW 04:32:14 31° N 04:38:38 10° ENE
Cosmos 1459 Rocket 3.9 04:27:03 10° SSW 04:33:18 80° WNW 04:39:42 10° N
Cosmos 372 Rocket 4.0 04:30:00 20° SSW 04:33:38 75° ESE 04:38:45 10° NNE
STARLINK-63 3.9 04:33:37 58° SSE 04:33:45 58° SSE 04:37:50 10° ENE
STARLINK 4.0 04:34:56 55° S 04:35:10 56° SSE 04:39:15 10° ENE
Cosmos 2333 Rocket 2.7 04:33:01 22° NNW 04:36:41 59° NE 04:42:23 10° SE
STARLINK-72 3.9 04:36:41 57° S 04:36:58 59° SSE 04:41:03 10° ENE
RESURS DK-1 3.9 04:36:48 22° N 04:38:34 31° NE 04:42:18 10° ESE
Cosmos 1408 Rocket 3.4 04:35:41 10° S 04:40:01 87° E 04:44:26 10° NNE
Cosmos 2150 Rocket 4.0 04:35:47 15° SSW 04:40:18 86° ESE 04:45:43 10° NNE
STARLINK-59 3.8 04:39:57 59° S 04:40:20 62° SSE 04:44:27 10° ENE
STARLINK-57 3.8 04:41:34 58° SSW 04:42:01 63° SSE 04:46:08 10° ENE
NOSS 3-4 (A) 4.1 04:41:26 40° W 04:42:50 44° WSW 04:49:57 10° S
NOSS 3-4 (C) 4.1 04:41:31 40° W 04:42:56 45° WSW 04:50:04 10° S
Cosmos 1408 4.2 04:45:33 24° N 04:45:33 24° N 04:47:06 10° N
Lacrosse 5 rocket 1.4 04:45:14 55° SSE 04:45:14 55° SSE 04:48:14 10° SE
STARLINK-28 3.8 04:44:48 57° SSW 04:45:21 65° SSE 04:49:29 10° ENE
STARLINK-75 3.7 04:46:02 60° SSW 04:46:34 70° SSE 04:50:43 10° ENE
Cosmos 1933 3.2 04:45:56 56° NNW 04:46:45 86° WSW 04:50:45 10° S
STARLINK-53 3.8 04:47:19 55° SSW 04:48:00 67° SSE 04:52:08 10° ENE
Meteor 1-31 Rocket 3.2 04:44:21 10° N 04:47:14 46° N 04:47:14 46° N
Cosmos 1500 Rocket 4.4 04:44:19 10° S 04:48:39 53° E 04:52:58 10° NNE
STARLINK-54 3.8 04:47:59 55° SSW 04:48:39 68° SSE 04:52:48 10° ENE
Cosmos 2016 Rocket 3.9 04:42:56 10° S 04:49:15 86° W 04:55:40 10° N
In-Cosmos 22 Rocket 4.3 04:49:07 43° WSW 04:50:07 48° WNW 04:55:34 10° N
Cosmos 1725 Rocket 4.1 04:44:16 10° S 04:50:34 81° E 04:56:55 10° NNE
COSMOS 2487 3.2 04:53:19 40° N 04:53:19 40° N 04:55:42 10° NNE
Cosmos 1484 Rocket 3.0 04:48:31 10° NNE 04:52:33 72° ESE 04:56:33 10° S
STARLINK-37 3.7 04:51:49 53° SW 04:52:38 70° SSE 04:56:46 10° ENE
STARLINK-55 3.7 04:52:39 51° SW 04:53:33 70° SSE 04:57:41 10° ENE
SJ 16-02 3.1 04:56:25 19° NNW 04:56:25 19° NNW 04:58:10 10° N
NOSS 3-3 (A) 4.3 04:52:50 38° W 04:54:58 52° NNW 05:01:51 10° NE
NOSS 3-3 (C) 4.3 04:52:54 37° W 04:55:04 52° NNW 05:01:57 10° NE
ALOS 3.2 04:50:33 10° NNE 04:55:07 48° E 04:59:38 10° S
STARLINK-34 3.7 04:54:22 50° SW 04:55:18 72° SSE 04:59:27 10° ENE
STARLINK-81 3.7 04:55:45 47° SW 04:56:48 70° SSE 05:00:56 10° ENE
STARLINK-24 3.7 04:56:28 48° SW 04:57:30 73° SSE 05:01:39 10° ENE
MSX 4.2 04:52:55 10° N 04:58:16 41° WNW 04:59:56 34° W
Cosmos 2082 Rocket 3.5 04:58:54 23° NW 04:58:54 23° NW 05:03:21 10° NNE
Meteor PRIRODA 3.4 04:55:35 10° NNE 04:59:16 78° WNW 05:02:53 10° SSW
Cosmos 1766 Rocket 4.2 05:00:27 36° NW 05:00:27 36° NW 05:03:35 10° N
STARLINK-77 3.7 04:58:55 45° SW 05:00:06 72° SSE 05:04:14 10° ENE
SL-16 R/B 4.1 04:56:23 10° NNW 05:00:54 23° NE 05:05:23 10° E
STARLINK-25 3.7 05:00:30 43° SW 05:01:45 73° SSE 05:05:55 10° ENE
Cosmos 1833 Rocket 4.2 05:02:48 18° NNW 05:02:50 18° NNW 05:06:40 10° NNE
COBE Rocket 4.2 04:58:16 10° SSW 05:03:05 43° W 05:04:53 31° NW
STARLINK-71 3.6 05:02:22 43° WSW 05:03:37 77° SSE 05:07:46 10° ENE
STARLINK-79 3.7 05:03:43 41° WSW 05:05:04 75° SSE 05:09:13 10° ENE
Cosmos 1782 3.4 05:02:25 10° N 05:06:23 57° ENE 05:10:18 10° SSE
SL-4 R/B 4.3 05:07:00 15° SW 05:07:00 15° SW 05:09:21 10° S
Cosmos 1816 Rocket 4.4 05:00:18 10° NNW 05:06:34 66° W 05:12:43 10° S
STARLINK-78 3.7 05:05:20 40° WSW 05:06:45 76° SSE 05:10:54 10° ENE
IDEFIX/ARIANE 42P 3.9 05:03:05 10° N 05:05:40 21° NNW 05:05:40 21° NNW
MOS 1-B 4.4 05:02:06 10° NNE 05:07:57 80° ESE 05:13:45 10° SSW
Cosmos 1048 Rocket 4.4 05:07:23 33° WNW 05:08:54 41° WSW 05:13:51 10° S
STARLINK-49 3.6 05:08:29 37° WSW 05:10:03 78° SSE 05:14:12 10° ENE
CZ-4B DEB 4.4 05:04:34 10° NNE 05:10:04 74° ESE 05:15:34 10° S
ATLAS CENTAUR R/B 1.7 05:08:17 34° WSW 05:10:13 59° NW 05:14:51 10° NE
STARLINK-27 3.6 05:10:07 36° WSW 05:11:44 79° SSE 05:15:53 10° ENE
COSMO-SKYMED 1 2.7 05:09:05 10° S 05:13:18 50° W 05:15:48 23° NNW
STARLINK-74 3.6 05:11:43 35° WSW 05:13:23 80° SSE 05:17:32 10° ENE
USA 116 3.4 05:09:54 10° S 05:13:23 72° WSW 05:16:19 17° NNW
STARLINK-60 3.2 05:13:00 51° WSW 05:13:32 59° SSW 05:16:50 10° ESE
STARLINK-39 3.6 05:13:18 34° WSW 05:15:03 81° SSE 05:19:12 10° ENE
Cosmos 2100 Rocket 4.3 05:10:08 10° SW 05:15:54 40° WNW 05:21:41 10° N
BREEZE-M DEB (TANK) 4.4 05:15:55 16° SSW 05:15:55 16° SSW 05:17:43 10° SSE
STARLINK 3.6 05:14:55 33° WSW 05:16:43 82° SSE 05:20:53 10° ENE
Cosmos 1238 Rocket 3.8 05:10:36 10° S 05:16:55 86° E 05:22:22 10° N
Meteor 1-26 Rocket 4.1 05:11:17 10° NNW 05:16:58 70° W 05:22:28 10° S
Tsikada Rocket 4.0 05:11:01 10° NNW 05:17:17 59° W 05:23:27 10° S
STARLINK-42 3.6 05:15:57 33° WSW 05:17:46 83° SSE 05:21:56 10° ENE
STARLINK-80 3.4 05:16:51 41° WNW 05:18:05 76° N 05:21:56 10° E
SL-08 R/B 4.4 05:12:15 10° SSW 05:18:17 64° WNW 05:24:22 10° N
NOSS 0 Rocket 4.2 05:13:23 12° NNW 05:19:12 70° NE 05:25:26 10° SE
Cosmos 2360 Rocket 2.9 05:17:44 28° WNW 05:19:27 33° WSW 05:24:28 10° S
STARLINK-43 3.3 05:18:29 41° WNW 05:19:42 79° N 05:23:26 10° E
STARLINK-21 3.6 05:18:06 31° WSW 05:20:03 83° SSE 05:24:12 10° ENE
Cosmos 1400 Rocket 2.9 05:18:49 22° NNW 05:21:13 52° W 05:25:06 10° S
ATLAS 2AS CENTAUR R/B 3.9 05:20:47 22° W 05:21:42 22° WSW 05:26:52 10° SSW
STARLINK-45 3.6 05:20:01 31° WSW 05:21:57 87° SSE 05:26:07 10° ENE
Abrixas rocket 3.0 05:21:33 29° SW 05:22:31 38° S 05:25:22 10° ESE
Cosmos 2298 Rocket 4.3 05:19:23 15° SW 05:23:29 46° WNW 05:28:36 10° NNE
TIMED 4.4 05:21:00 16° NNW 05:24:26 86° WSW 05:28:48 10° SSE
STARLINK-76 3.6 05:22:55 28° WSW 05:25:02 86° S 05:29:13 10° ENE
Cosmos 2237 Rocket 2.8 05:20:55 10° NNW 05:26:33 55° NE 05:32:06 10° SE
STARLINK 3.6 05:24:31 27° WSW 05:26:42 87° SSE 05:30:52 10° ENE
SL-16 R/B 4.2 05:29:29 11° WSW 05:29:29 11° WSW 05:29:51 10° SW
Lacrosse 5 2.3 05:24:57 25° WNW 05:27:39 49° N 05:32:36 10° E
STARLINK-61 3.5 05:25:55 30° W 05:27:52 83° N 05:31:55 10° E
SOZ 4.2 05:26:24 26° WSW 05:28:11 78° S 05:30:25 10° E
ADEOS Rocket 4.2 05:20:51 10° SE 05:28:13 55° ENE 05:35:03 10° N
STARLINK-32 3.6 05:26:06 26° WSW 05:28:20 87° S 05:32:30 10° ENE
COSMOS 2428 2.7 05:23:45 15° NW 05:28:35 72° WSW 05:34:17 10° SSE
STARLINK-40 3.6 05:27:43 25° WSW 05:30:02 88° SSE 05:34:12 10° ENE
METEOR-M 4.1 05:25:41 10° NNE 05:31:04 88° WNW 05:36:25 10° SSW
STARLINK-44 3.6 05:29:18 25° WSW 05:31:40 89° S 05:35:51 10° ENE
Gbstr 26 Del rocket 2.5 05:30:02 29° W 05:31:50 84° S 05:35:37 10° E
Cosmos 2322 Rocket 3.9 05:33:59 13° WSW 05:33:59 13° WSW 05:35:30 10° SW
Cosmos 1833 4.1 05:27:33 10° SW 05:33:09 72° WNW 05:38:49 10° NNE
STARLINK-36 3.6 05:30:55 24° WSW 05:33:22 90° SSW 05:37:32 10° ENE
STARLINK-26 3.5 05:33:13 24° W 05:35:38 86° NNW 05:39:45 10° E
Cosmos 1802 Rocket 4.5 05:32:52 10° SW 05:38:47 38° WNW 05:44:41 10° N
USA 234 3.5 05:33:18 10° E 05:39:44 61° N 05:44:53 17° WNW
STARLINK-35 3.6 05:37:16 21° W 05:39:58 88° NNW 05:44:08 10° E
STARLINK-51 3.6 05:38:53 20° W 05:41:39 87° N 05:45:49 10° E
STARLINK-30 3.6 05:40:30 20° W 05:43:20 86° NNW 05:47:30 10° E
CZ-2C R/B 3.4 05:39:41 10° N 05:43:28 23° WNW 05:45:50 16° W
Helios 1A Rocket 2.8 05:39:30 10° NNE 05:43:36 77° WNW 05:47:40 10° SSW
STARLINK-33 3.6 05:42:05 19° W 05:45:00 86° N 05:49:10 10° E
FENGYUN 3A 3.6 05:40:11 10° NNE 05:45:36 73° WNW 05:51:00 10° SSW
PSLV R/B 4.4 05:42:19 10° N 05:45:51 33° WNW 05:49:27 10° SW
STARLINK-52 3.5 05:44:10 23° W 05:46:08 55° SSW 05:49:35 10° SE
STARLINK-50 3.6 05:43:42 19° W 05:46:40 85° NNW 05:50:51 10° E
STARLINK-56 3.6 05:46:53 17° W 05:49:59 84° N 05:54:09 10° E
CZ-4B R/B 4.1 05:48:15 10° NNW 05:50:30 18° NW 05:50:30 18° NW
Starlink (trailer) 3.6 05:48:26 17° W 05:51:37 84° N 05:55:47 10° E
Cosmos 1980 3.8 05:47:08 10° NNW 05:52:50 83° ENE 05:58:31 10° SSE
STARLINK-38 3.6 05:50:05 16° W 05:53:19 83° N 05:57:28 10° E
H-2A R/B 4.2 05:51:08 10° NNW 05:53:53 16° NW 05:54:17 16° WNW
Cosmos 2233 Rocket 4.1 05:48:16 10° SSW 05:54:29 59° WNW 06:00:45 10° N
STARLINK-65 3.6 05:51:41 16° W 05:54:59 83° N 05:59:09 10° E
Okean O Rocket 1.6 05:51:42 10° N 05:56:01 61° WNW 06:00:17 10° SSW
Cosmos 1707 Rocket 3.5 05:51:55 10° NNW 05:56:24 74° W 06:00:51 10° S
Cosmos 1606 4.1 05:56:26 17° WNW 05:57:30 19° W 06:00:13 10° SW
Cosmos 2228 Rocket 4.1 05:53:52 10° NNW 05:57:43 27° W 06:01:31 10° SW
STARLINK-29 3.8 05:55:48 17° W 05:58:08 44° SSW 06:01:28 10° SE
STARLINK-69 3.6 05:56:30 14° W 05:59:59 81° N 06:04:10 10° E
Cosmos 1437 4.2 06:01:23 17° WNW 06:01:23 17° WNW 06:03:15 10° NNW
FALCON 9 DEB 4.0 05:58:58 16° W 06:01:19 38° SSW 06:04:33 10° SE
STARLINK-66 3.6 05:58:06 14° W 06:01:40 81° N 06:05:49 10° E
Timation 2 Rocket 3.9 05:56:18 10° SSW 06:02:20 89° WNW 06:08:22 10° NNE
Meteor 1-10 Rocket 4.2 05:56:53 10° NNW 06:02:31 77° W 06:08:12 10° S
Cosmos 1805 Rocket 3.5 05:58:53 10° SSW 06:03:11 64° WNW 06:07:31 10° N
STARLINK-41 3.6 05:59:38 13° W 06:03:17 81° N 06:07:27 10° E
Cosmos 1825 3.6 06:01:37 10° WSW 06:04:13 17° WNW 06:06:48 10° NNW
SJ-7 4.4 06:00:15 10° N 06:04:24 70° WNW 06:08:29 10° SSW
STARLINK-48 3.4 06:01:17 15° W 06:04:28 81° N 06:08:23 10° E
Cosmos 1743 Rocket 4.3 06:00:50 10° SW 06:04:36 29° WNW 06:08:25 10° N
STARLINK-64 3.6 06:01:15 13° W 06:04:56 80° N 06:09:06 10° E
Exosat Rocket 4.5 06:00:07 10° NW 06:05:22 44° WSW 06:12:16 10° S
STARLINK-70 3.6 06:02:51 12° W 06:06:37 80° N 06:10:47 10° E
Cosmos 2219 Rocket 2.8 06:02:26 10° NW 06:07:39 39° WSW 06:12:51 10° S
STARLINK-68 3.6 06:04:36 12° W 06:08:25 79° N 06:12:35 10° E
STARLINK-58 3.6 06:06:04 12° W 06:09:58 79° N 06:14:08 10° E
CZ-4B R/B 3.2 06:05:10 10° N 06:10:29 59° WNW 06:15:53 10° SW
Cosmos 1125 Rocket 4.0 06:06:19 10° WSW 06:11:13 38° NW 06:16:08 10° NNE
Cosmos 2251 Rocket 3.5 06:06:06 10° NNW 06:11:23 77° WSW 06:16:37 10° SSE
STARLINK-62 3.6 06:07:45 11° W 06:11:42 79° N 06:15:52 10° E
CZ-4 R/B 4.0 06:09:21 10° NE 06:12:28 23° E 06:15:32 10° SSE
STARLINK-63 3.6 06:09:17 11° W 06:13:19 79° N 06:17:28 10° E
Meteor 2-3 Rocket 4.1 06:08:41 10° SW 06:14:09 42° WNW 06:19:42 10° N
STARLINK 3.6 06:10:36 10° W 06:14:44 80° N 06:18:54 10° E
Cosmos 1812 2.8 06:12:36 10° N 06:16:30 82° E 06:20:22 10° SSE
STARLINK-72 3.6 06:12:22 10° W 06:16:32 79° N 06:20:42 10° E
RESURS DK-1 2.9 06:12:48 10° NW 06:16:42 40° WSW 06:20:35 10° S
Cosmos 2219 4.1 06:12:03 10° S 06:17:33 55° ESE 06:23:04 10° NE
BREEZE-M DEB (TANK) 2.4 06:16:32 10° W 06:18:27 30° SSW 06:20:31 10° SE
Cosmos 1174 3.7 06:16:42 10° NW 06:19:55 55° NE 06:22:52 10° SE
STARLINK-59 3.6 06:15:46 10° W 06:19:56 78° N 06:24:05 10° E
Cosmos 2333 Rocket 3.1 06:15:40 10° NW 06:20:40 31° WSW 06:25:39 10° SSW
STARLINK-57 3.6 06:17:27 10° W 06:21:37 78° N 06:25:46 10° E
CZ-4C R/B 3.4 06:15:47 10° NW 06:22:15 50° NNE 06:29:50 10° ESE
Lacrosse 5 rocket 3.2 06:21:35 10° W 06:23:09 12° SW 06:24:43 10° SSW
STARLINK-28 3.6 06:20:49 10° W 06:24:58 78° N 06:29:08 10° E
STARLINK-75 3.6 06:22:03 10° W 06:26:12 78° N 06:30:22 10° E
Cosmos 2297 Rocket 3.6 06:21:09 10° S 06:26:29 44° ESE 06:31:50 10° NE
Cosmos 1484 Rocket 4.4 06:24:00 10° NNW 06:26:29 16° WNW 06:28:58 10° W
Cosmos 1315 Rocket 3.8 06:23:08 10° NNW 06:26:35 27° W 06:30:03 10° SSW
Cosmos 2227 Rocket 3.7 06:22:16 10° S 06:27:35 43° ESE 06:32:55 10° NE
Cosmos 1464 Rocket 4.0 06:21:18 10° SSW 06:27:36 77° WNW 06:33:51 10° N
Cosmos 1633 Rocket 3.0 06:23:15 10° SSW 06:27:36 80° W 06:32:02 10° N
STARLINK-53 3.6 06:23:28 10° W 06:27:38 78° N 06:31:49 10° E
Cosmos 1092 Rocket 4.4 06:21:28 10° N 06:27:46 70° ENE 06:33:56 10° SSE
STARLINK-54 3.6 06:24:07 10° W 06:28:17 78° N 06:32:27 10° E
NOAA 6 4.4 06:24:09 10° N 06:28:56 41° WNW 06:33:41 10° SW
Sich 1 3.2 06:25:05 10° SSW 06:29:13 49° WNW 06:33:25 10° N
YAOGAN 6 4.1 06:26:26 10° NNE 06:29:51 42° E 06:33:19 10° S
AQUARIUS 4.2 06:26:07 10° NNE 06:30:39 81° WNW 06:35:08 10° SSW
Aureole 1 Rocket 2.9 06:28:32 10° NNW 06:32:10 88° WSW 06:36:51 10° SSE
STARLINK-37 3.6 06:28:06 10° W 06:32:15 78° N 06:36:24 10° E
ALOS 3.2 06:28:24 10° N 06:32:19 27° WNW 06:36:14 10° WSW
STARLINK-55 3.6 06:29:01 10° W 06:33:10 78° N 06:37:20 10° E
Cosmos 1633 2.9 06:31:17 10° SSW 06:34:46 43° WNW 06:38:17 10° N
STARLINK-34 3.6 06:30:47 10° W 06:34:57 78° N 06:39:06 10° E
SMAP 3.0 06:30:58 10° N 06:35:38 70° WNW 06:40:16 10° SSW
Meteor 1-27 Rocket 3.9 06:32:04 10° NNW 06:37:53 67° W 06:43:45 10° S
